Вернуться в каталог

STARLINK-36477

АктивенСвязьVLEO
NORAD 67355·PAYLOAD·🇺🇸 United States

Запущен Jan 9, 2026 с Cape Canaveral Space Force Station

Loading…

Ближайшие Пролёты (ближайшие 24 часа)

TLE

СвежийSource: CelesTrak SupGP

Эпоха: Sep 15, 2026, 03:59 UTC

1 67355C 26003X   26258.16645833 -.00053297  00000+0 -19309-2 0  2585
2 67355  43.0024 237.3622 0001380 269.9402 240.1940 15.27597455    11

Отслеживайте STARLINK-36477 в реальном времени с AllMySat

Download on the App Store